Tracking 27086 objects as of 22-Mar-2023
HD Live streaming from Space Station
objects crossing your sky now

STARLINK-2438

Track STARLINK-2438 now!
10-day predictions
STARLINK-2438 is classified as:


NORAD ID: 48103
Int'l Code: 2021-027M
Perigee: 539.0 km
Apogee: 545.9 km
Inclination: 53.1 °
Period: 95.3 minutes
Semi major axis: 6913 km
RCS: Unknown
Launch date: April 7, 2021
Source: United States (US)
Launch site: AIR FORCE EASTERN TEST RANGE (AFETR)
Your satellite tracking list
Your tracking list is empty




NASA's NSSDC Master Catalog

Two Line Element Set (TLE):
1 48103U 21027M   23080.92608936  .00043930  00000-0  26529-2 0  9999
2 48103  53.0542 336.2870 0005024 159.0700 201.0498 15.10289313109354
Source of the keplerian elements: AFSPC